�������l�o���
Date,Time,MP-1(��Sv/h),MP-2(��Sv/h),MP-3(��Sv/h),MP-4(��Sv/h),MP-5(��Sv/h),MP-6(��Sv/h),MP-7(��Sv/h),����,����(m/s),���J
2013/07/10,00:00,0.9,0.6,0.9,0.9,0.8,0.4,0.3,��쐼,4.9,��
2013/07/10,00:10,0.9,0.6,0.9,0.9,0.8,0.4,0.3,�쐼,5.6,��
2013/07/10,00:20,0.9,0.6,0.9,0.9,0.8,0.4,0.3,�쐼,5.3,��
2013/07/10,00:30,0.9,0.6,0.9,0.9,0.8,0.4,0.3,�쐼,4.7,��
2013/07/10,00:40,0.9,0.6,0.9,0.9,0.8,0.4,0.3,�쐼,2.7,��
2013/07/10,00:50,0.9,0.6,0.9,0.9,0.8,0.4,0.3,���쐼,1.4,��
2013/07/10,01:00,0.9,0.6,0.9,0.9,0.8,0.4,0.3,���쐼,1.4,��
2013/07/10,01:10,0.9,0.6,0.9,0.9,0.8,0.4,0.3,-,CALM,��
2013/07/10,01:20,0.9,0.6,0.9,0.9,0.8,0.4,0.3,�k�k��,0.7,��
2013/07/10,01:30,0.9,0.6,0.9,0.9,0.8,0.4,0.3,�k�k��,1.0,��
2013/07/10,01:40,0.9,0.6,0.9,0.9,0.8,0.4,0.3,�k�k��,1.8,��
2013/07/10,01:50,0.9,0.6,0.9,0.9,0.8,0.4,0.3,�k�k��,1.4,��
2013/07/10,02:00,0.9,0.6,0.9,0.9,0.8,0.4,0.3,�k,1.4,��
2013/07/10,02:10,0.9,0.6,0.9,0.9,0.8,0.4,0.3,�k�k��,1.5,��
2013/07/10,02:20,0.9,0.6,0.9,0.9,0.8,0.4,0.3,�k,1.4,��
2013/07/10,02:30,0.9,0.6,0.9,0.9,0.8,0.4,0.3,�k�k��,1.5,��
2013/07/10,02:40,0.9,0.6,0.9,0.9,0.8,0.4,0.3,�k��,1.6,��
2013/07/10,02:50,0.9,0.6,0.9,0.9,0.8,0.4,0.3,�k�k��,2.1,��
2013/07/10,03:00,0.9,0.6,0.9,0.9,0.8,0.4,0.3,�k�k��,3.1,�L
2013/07/10,03:10,0.9,0.6,0.9,0.9,0.8,0.4,0.3,�k�k��,3.2,��
2013/07/10,03:20,0.9,0.6,0.9,0.9,0.8,0.4,0.3,���k��,2.8,��
2013/07/10,03:30,0.9,0.6,0.9,0.9,0.8,0.4,0.3,��,2.7,��
2013/07/10,03:40,0.9,0.6,0.9,0.9,0.8,0.4,0.3,��,2.1,��
2013/07/10,03:50,0.9,0.6,0.9,0.9,0.8,0.4,0.3,���쐼,1.6,�L
2013/07/10,04:00,0.9,0.6,0.9,0.9,0.8,0.4,0.3,��,1.6,��
2013/07/10,04:10,0.9,0.6,0.9,0.9,0.8,0.4,0.3,�쐼,1.4,��
2013/07/10,04:20,0.9,0.6,0.9,0.9,0.8,0.4,0.3,���쐼,2.2,��
2013/07/10,04:30,0.9,0.6,0.9,0.9,0.8,0.4,0.3,��,1.5,��
2013/07/10,04:40,0.9,0.6,0.9,0.9,0.8,0.4,0.3,�k��,1.8,��
2013/07/10,04:50,0.9,0.6,0.9,0.9,0.8,0.4,0.3,���쐼,2.2,��
2013/07/10,05:00,0.9,0.6,0.9,0.9,0.8,0.4,0.3,��,1.9,��
2013/07/10,05:10,0.9,0.6,0.9,0.9,0.8,0.4,0.3,���쐼,2.5,��
2013/07/10,05:20,0.9,0.6,0.9,0.9,0.8,0.4,0.3,�쐼,3.0,��
2013/07/10,05:30,0.9,0.6,0.9,0.9,0.8,0.4,0.3,�k,0.8,��
2013/07/10,05:40,0.9,0.6,0.9,0.9,0.8,0.4,0.3,�k��,1.6,��
2013/07/10,05:50,0.9,0.6,0.9,0.9,0.8,0.4,0.3,���k��,2.1,��
2013/07/10,06:00,0.9,0.6,0.9,0.9,0.8,0.4,0.3,��,4.2,��
2013/07/10,06:10,0.9,0.6,0.9,0.9,0.8,0.4,0.3,���k��,3.9,��
2013/07/10,06:20,0.9,0.6,0.9,0.9,0.8,0.4,0.3,�k��,3.1,��
2013/07/10,06:30,0.9,0.6,0.9,0.9,0.8,0.4,0.3,�k��,2.7,��
2013/07/10,06:40,0.9,0.6,0.9,0.9,0.8,0.4,0.3,���k��,1.9,��
2013/07/10,06:50,0.9,0.6,0.9,0.9,0.8,0.4,0.3,-,CALM,��
2013/07/10,07:00,0.9,0.6,0.9,0.9,0.8,0.4,0.3,���k��,1.2,��
2013/07/10,07:10,0.9,0.6,0.9,0.9,0.8,0.4,0.3,��,0.6,��
2013/07/10,07:20,0.9,0.6,0.9,0.9,0.8,0.4,0.3,��,1.6,��
2013/07/10,07:30,0.9,0.6,0.9,0.9,0.8,0.4,0.3,���k��,1.5,��
2013/07/10,07:40,0.9,0.6,0.9,0.9,0.8,0.4,0.3,��,2.4,��
2013/07/10,07:50,0.9,0.6,0.9,0.9,0.8,0.4,0.3,��,2.5,��
2013/07/10,08:00,0.9,0.6,0.9,0.9,0.8,0.4,0.3,��,3.1,��
2013/07/10,08:10,0.9,0.6,0.9,0.9,0.8,0.4,0.3,���쓌,2.6,��
2013/07/10,08:20,0.9,0.6,0.9,0.9,0.8,0.4,0.3,���쓌,2.8,��
2013/07/10,08:30,0.9,0.6,0.9,0.9,0.8,0.4,0.3,���쓌,2.3,��
2013/07/10,08:40,0.9,0.6,0.9,0.9,0.8,0.4,0.3,�쓌,1.5,��
2013/07/10,08:50,0.9,0.6,0.9,0.9,0.8,0.4,0.3,��,1.7,��
2013/07/10,09:00,0.9,0.6,0.9,0.9,0.8,0.4,0.3,���쓌,1.9,��
2013/07/10,09:10,0.9,0.6,0.9,0.9,0.8,0.4,0.3,�쓌,1.6,��
2013/07/10,09:20,0.9,0.6,0.9,0.9,0.8,0.4,0.3,�쓌,1.8,��
2013/07/10,09:30,0.9,0.6,0.9,0.9,0.8,0.4,0.3,�쓌,1.9,��
2013/07/10,09:40,0.9,0.6,0.9,0.9,0.8,0.4,0.3,�쓌,2.8,��
2013/07/10,09:50,0.9,0.6,0.9,0.9,0.8,0.4,0.3,��쓌,3.1,��
2013/07/10,10:00,0.9,0.6,0.9,0.9,0.8,0.4,0.3,��,3.3,��
2013/07/10,10:10,0.9,0.6,0.9,0.9,0.8,0.4,0.3,��쓌,2.8,��
2013/07/10,10:20,0.9,0.6,0.9,0.9,0.8,0.4,0.3,��쓌,3.2,��
2013/07/10,10:30,0.9,0.6,0.9,0.9,0.8,0.4,0.3,��쓌,3.0,��
2013/07/10,10:40,0.9,0.6,0.9,0.9,0.8,0.4,0.3,��,2.9,��
2013/07/10,10:50,0.9,0.6,0.9,0.9,0.8,0.4,0.3,��,2.8,��
2013/07/10,11:00,0.9,0.6,0.9,0.9,0.8,0.4,0.3,��,3.6,��
2013/07/10,11:10,0.9,0.7,0.9,0.9,0.8,0.4,0.3,��,4.0,��
2013/07/10,11:20,0.9,0.6,0.9,0.9,0.8,0.4,0.3,��,4.3,��
2013/07/10,11:30,0.9,0.6,0.9,0.9,0.8,0.4,0.3,��쓌,4.2,��
2013/07/10,11:40,0.9,0.6,0.9,0.9,0.8,0.4,0.3,��쓌,3.6,��
2013/07/10,11:50,0.9,0.6,0.9,0.9,0.8,0.4,0.3,��쓌,3.6,��
2013/07/10,12:00,0.9,0.6,0.9,0.9,0.8,0.4,0.3,��쓌,4.2,��
2013/07/10,12:10,0.9,0.6,0.9,0.9,0.8,0.4,0.3,��쓌,3.0,��
2013/07/10,12:20,0.9,0.6,0.9,0.9,0.8,0.4,0.3,��,3.1,��
2013/07/10,12:30,0.9,0.6,0.9,0.9,0.8,0.4,0.3,��,3.9,��
2013/07/10,12:40,0.9,0.6,0.9,0.9,0.8,0.4,0.3,��,3.3,��
2013/07/10,12:50,0.9,0.6,0.9,0.9,0.8,0.4,0.3,��,3.6,��
2013/07/10,13:00,0.9,0.6,0.9,0.9,0.8,0.4,0.3,��,3.6,��
2013/07/10,13:10,0.9,0.6,0.9,0.9,0.8,0.4,0.3,��,3.6,��
2013/07/10,13:20,0.9,0.6,0.9,0.9,0.8,0.4,0.3,��,3.6,��
2013/07/10,13:30,0.9,0.6,0.9,0.9,0.8,0.4,0.3,��,4.2,��
2013/07/10,13:40,0.9,0.6,0.9,0.9,0.8,0.4,0.3,��,4.0,��
2013/07/10,13:50,0.9,0.6,0.9,0.9,0.8,0.4,0.3,��,3.2,��
2013/07/10,14:00,0.9,0.6,0.9,0.9,0.8,0.4,0.3,��쓌,3.3,��
2013/07/10,14:10,0.9,0.6,0.9,0.9,0.8,0.4,0.3,��,3.1,��
2013/07/10,14:20,0.9,0.6,0.9,0.9,0.8,0.4,0.3,��,3.9,��
2013/07/10,14:30,0.9,0.6,0.9,0.9,0.8,0.4,0.3,��쐼,4.6,��
2013/07/10,14:40,0.9,0.6,0.9,0.9,0.8,0.4,0.3,��,4.1,��
2013/07/10,14:50,0.9,0.6,0.9,0.9,0.8,0.4,0.3,��,5.4,��
2013/07/10,15:00,0.9,0.6,0.9,0.9,0.8,0.4,0.3,��,5.2,��
2013/07/10,15:10,0.9,0.6,0.9,0.9,0.8,0.4,0.3,��,4.7,��
2013/07/10,15:20,0.9,0.6,0.9,0.9,0.8,0.4,0.3,��,7.6,��
2013/07/10,15:30,0.9,0.6,0.9,0.9,0.8,0.4,0.3,��,5.9,��
2013/07/10,15:40,0.9,0.6,0.9,0.9,0.8,0.4,0.3,��,6.7,��
2013/07/10,15:50,0.9,0.6,0.9,0.9,0.8,0.4,0.3,��,7.7,��
2013/07/10,16:00,0.9,0.6,0.9,0.9,0.8,0.4,0.3,��,6.1,��
2013/07/10,16:10,0.9,0.6,0.9,0.9,0.8,0.4,0.3,��,6.2,��
2013/07/10,16:20,0.9,0.6,0.9,0.9,0.8,0.4,0.3,��,6.5,��
2013/07/10,16:30,0.9,0.6,0.9,0.9,0.8,0.4,0.3,��,5.7,��
2013/07/10,16:40,0.9,0.6,0.9,0.9,0.8,0.4,0.3,��,5.5,��
2013/07/10,16:50,0.9,0.6,0.9,0.9,0.8,0.4,0.3,��,6.3,��
2013/07/10,17:00,0.9,0.6,0.9,0.9,0.8,0.4,0.3,��쐼,5.9,��
2013/07/10,17:10,0.9,0.6,0.9,0.9,0.8,0.4,0.3,�쐼,3.9,��
2013/07/10,17:20,0.9,0.6,0.9,0.9,0.8,0.4,0.3,�쐼,2.2,��
2013/07/10,17:30,0.9,0.6,0.9,0.9,0.8,0.4,0.3,�쐼,1.7,��
2013/07/10,17:40,0.9,0.6,0.9,0.9,0.8,0.4,0.3,��쐼,0.5,��
2013/07/10,17:50,0.9,0.6,0.9,0.9,0.8,0.4,0.3,-,CALM,��
2013/07/10,18:00,0.9,0.6,0.9,0.9,0.8,0.4,0.3,��,0.5,��
2013/07/10,18:10,0.9,0.6,0.9,0.9,0.8,0.4,0.3,���쐼,1.4,��
2013/07/10,18:20,0.9,0.6,0.9,0.9,0.8,0.4,0.3,��,1.8,��
2013/07/10,18:30,0.9,0.6,0.9,0.9,0.8,0.4,0.3,��,2.2,�L
2013/07/10,18:40,0.9,0.6,0.9,0.9,0.8,0.4,0.3,�쐼,2.3,��
2013/07/10,18:50,0.9,0.6,0.9,0.9,0.8,0.4,0.3,�쐼,2.4,��
2013/07/10,19:00,0.9,0.6,0.9,0.9,0.8,0.4,0.3,�쐼,1.9,��
2013/07/10,19:10,0.9,0.6,0.9,0.9,0.8,0.4,0.3,���쐼,1.0,��
2013/07/10,19:20,0.9,0.6,0.9,0.9,0.8,0.4,0.3,��쐼,1.4,��
2013/07/10,19:30,0.9,0.6,0.9,0.9,0.8,0.4,0.3,���쐼,0.9,��
2013/07/10,19:40,0.9,0.6,0.9,0.9,0.8,0.4,0.3,��,0.5,��
2013/07/10,19:50,0.9,0.6,0.9,0.9,0.8,0.4,0.3,���k��,1.5,��
2013/07/10,20:00,0.9,0.6,0.9,0.9,0.8,0.4,0.3,���k��,1.2,��
2013/07/10,20:10,0.9,0.6,0.9,0.9,0.8,0.4,0.3,-,CALM,��
2013/07/10,20:20,0.9,0.6,0.9,0.9,0.8,0.4,0.3,�k,1.1,��
2013/07/10,20:30,0.9,0.6,0.9,0.9,0.8,0.4,0.3,��,1.7,�L
2013/07/10,20:40,0.9,0.6,0.9,0.9,0.8,0.4,0.3,�쐼,1.9,�L
2013/07/10,20:50,0.9,0.6,0.9,0.9,0.8,0.4,0.3,���쐼,3.6,��
2013/07/10,21:00,0.9,0.6,0.9,0.9,0.8,0.4,0.3,��,3.0,��
2013/07/10,21:10,0.9,0.6,0.9,0.9,0.8,0.4,0.3,��,3.7,��
2013/07/10,21:20,0.9,0.6,0.9,0.9,0.8,0.4,0.3,��,3.6,��
2013/07/10,21:30,0.9,0.6,0.9,0.9,0.8,0.4,0.3,���쐼,1.7,�L
2013/07/10,21:40,0.9,0.6,0.9,0.9,0.8,0.4,0.3,��쐼,2.1,��
2013/07/10,21:50,0.9,0.6,0.9,0.9,0.8,0.4,0.3,��쐼,1.4,�L
2013/07/10,22:00,0.9,0.6,0.9,0.9,0.8,0.4,0.3,-,CALM,�L
2013/07/10,22:10,0.9,0.6,0.9,0.9,0.8,0.4,0.3,-,CALM,�L
2013/07/10,22:20,0.9,0.6,0.9,0.9,0.8,0.4,0.3,��,0.7,��
2013/07/10,22:30,0.9,0.6,0.9,0.9,0.8,0.4,0.3,��,1.0,��
2013/07/10,22:40,0.9,0.6,0.9,0.9,0.8,0.4,0.3,�쓌,0.8,��
2013/07/10,22:50,0.9,0.6,0.9,0.9,0.8,0.4,0.3,-,CALM,��
2013/07/10,23:00,0.9,0.6,0.9,0.9,0.8,0.4,0.3,�쓌,1.0,��
2013/07/10,23:10,0.9,0.6,0.9,0.9,0.8,0.4,0.3,�쓌,1.2,��
2013/07/10,23:20,0.9,0.6,0.9,0.9,0.8,0.4,0.3,��쓌,0.7,��
2013/07/10,23:30,0.9,0.6,0.9,0.9,0.8,0.4,0.3,-,CALM,��
2013/07/10,23:40,0.9,0.6,0.9,0.9,0.8,0.4,0.3,-,CALM,��
2013/07/10,23:50,0.9,0.6,0.9,0.9,0.8,0.4,0.3,-,CALM,��
